Vagabond Aaf / Yakim, WA

9:33 AM PDT on April 26, 2017 (GMT -0700)
Vagabond Aaf / Yakim

Weather History for K1YT - January, 2014

Change the Weather History Date:

Sunday, January 26, 2014

  Actual Average (KYKM) Record (KYKM)
Temperature  
Mean Temperature 26 °F -  
Max Temperature 28 °F 37 °F 58 °F (1971)
Min Temperature 24 °F 23 °F -19 °F (1957)
Degree Days  
Heating Degree Days 39    
Moisture  
Dew Point 24 °F    
Average Humidity 90    
Maximum Humidity 96    
Minimum Humidity 84    
Precipitation  
Precipitation 0.00 in - - ()
Sea Level Pressure  
Sea Level Pressure 30.32 in    
Wind  
Wind Speed 3 mph (ESE)    
Max Wind Speed 8 mph    
Max Gust Speed -    
Visibility 11 miles    
Events      
Averages and records for this station are not official NWS values.
T = Trace of Precipitation, MM = Missing Value Source: NWS Daily Summary

Daily Weather History Graph

Daily Weather History Graph

Search for Another Location

Airport or City:

Trip Planner

Search our weather history database for the weather conditions in past years. The results will help you decide how hot, cold, wet, or windy it might be!

Date:

Astronomy

Jan. 26, 2014 Rise Set
Actual Time 7:32 AM PST 4:56 PM PST
Civil Twilight 6:59 AM PST 5:29 PM PST
Nautical Twilight 6:22 AM PST 6:06 PM PST
Astronomical Twilight 5:47 AM PST 6:42 PM PST
Moon 3:16 AM PST 12:48 PM PST
Length of Visible Light 10h 29m
Length of Day
9h 24m
Waning Crescent, 23% of the Moon is Illuminated
Jan 26
Waning Crescent
Jan 30
New
Feb 6
First Quarter
Feb 14
Full
Feb 22
Last Quarter

Hourly Weather History & Observations

Time (PST) Temp. Windchill Dew Point Humidity Pressure Visibility Wind Dir Wind Speed Gust Speed Precip Events Conditions
12:56 AM 26.4 °F 22.4 °F 24.8 °F 94% 30.35 in 10.0 mi SSW 3.5 mph - N/A   Overcast
1:56 AM 26.2 °F 20.7 °F 24.3 °F 92% 30.34 in 10.0 mi SW 4.6 mph - N/A   Overcast
1:57 AM 26.6 °F 22.6 °F 24.8 °F 93% 30.34 in 10.0 mi Variable 3.5 mph - N/A   Overcast
2:56 AM 26.1 °F - 24.8 °F 95% 30.34 in 7.0 mi East 2.3 mph - N/A   Overcast
3:36 AM 26.6 °F - 24.8 °F 93% 30.34 in 6.0 mi Variable 1.2 mph - N/A   Overcast
3:56 AM 25.9 °F - 24.8 °F 96% 30.34 in 6.0 mi SSE 1.2 mph - N/A   Overcast
4:36 AM 26.6 °F 22.6 °F 24.8 °F 93% 30.34 in 6.0 mi ENE 3.5 mph - N/A   Overcast
4:56 AM 25.9 °F - 24.6 °F 95% 30.34 in 7.0 mi East 2.3 mph - N/A   Overcast
5:56 AM 26.1 °F - 24.3 °F 93% 30.33 in 6.0 mi NE 1.2 mph - N/A   Overcast
6:46 AM 24.8 °F 20.5 °F 23.0 °F 93% 30.33 in 12.0 mi SE 3.5 mph - N/A   Overcast
6:56 AM 25.7 °F - 23.2 °F 90% 30.33 in 12.0 mi SE 2.3 mph - N/A   Overcast
7:26 AM 24.8 °F - 23.0 °F 93% 30.34 in 12.0 mi SSE 2.3 mph - N/A   Overcast
7:56 AM 25.7 °F 21.5 °F 23.2 °F 90% 30.34 in 12.0 mi ESE 3.5 mph - N/A   Overcast
8:01 AM 24.8 °F - 23.0 °F 93% 30.34 in 12.0 mi Variable 1.2 mph - N/A   Overcast
8:31 AM 24.8 °F - 23.0 °F 93% 30.34 in 12.0 mi ESE 2.3 mph - N/A   Overcast
8:56 AM 25.5 °F 17.8 °F 23.0 °F 90% 30.34 in 12.0 mi East 6.9 mph - N/A   Overcast
9:56 AM 26.1 °F 17.6 °F 22.8 °F 88% 30.34 in 12.0 mi East 8.1 mph - N/A   Overcast
10:56 AM 27.3 °F 23.4 °F 23.5 °F 86% 30.34 in 12.0 mi NE 3.5 mph - N/A   Overcast
11:56 AM 28.0 °F 24.2 °F 24.3 °F 86% 30.34 in 12.0 mi NW 3.5 mph - N/A   Overcast
12:56 PM 28.2 °F 24.4 °F 24.3 °F 85% 30.32 in 12.0 mi WSW 3.5 mph - N/A   Overcast
1:56 PM 28.2 °F 23.1 °F 24.6 °F 86% 30.31 in 12.0 mi SW 4.6 mph - N/A   Overcast
2:56 PM 28.0 °F - 24.1 °F 85% 30.30 in 12.0 mi SW 2.3 mph - N/A   Overcast
3:56 PM 28.6 °F - 24.3 °F 84% 30.29 in 12.0 mi Variable 2.3 mph - N/A   Overcast
4:56 PM 28.2 °F - 24.4 °F 86% 30.28 in 12.0 mi SSW 2.3 mph - N/A   Overcast
5:56 PM 28.0 °F - 24.6 °F 87% 30.27 in 12.0 mi West 2.3 mph - N/A   Overcast
6:56 PM 28.0 °F - 24.8 °F 88% 30.29 in 12.0 mi Variable 1.2 mph - N/A   Overcast
7:56 PM 27.9 °F 21.5 °F 24.4 °F 87% 30.29 in 12.0 mi East 5.8 mph - N/A   Overcast
8:56 PM 27.5 °F 23.6 °F 24.1 °F 87% 30.29 in 12.0 mi East 3.5 mph - N/A   Overcast
9:56 PM 27.5 °F 22.2 °F 24.6 °F 89% 30.29 in 12.0 mi East 4.6 mph - N/A   Overcast
10:56 PM 27.3 °F 22.0 °F 24.4 °F 89% 30.29 in 12.0 mi East 4.6 mph - N/A   Overcast
11:06 PM 26.6 °F 19.1 °F 24.8 °F 93% 30.29 in 12.0 mi ENE 6.9 mph - N/A   Overcast
11:36 PM 26.6 °F 18.2 °F 24.8 °F 93% 30.30 in 12.0 mi East 8.1 mph - N/A   Overcast
11:56 PM 27.1 °F 19.7 °F 24.4 °F 90% 30.31 in 12.0 mi East 6.9 mph - N/A   Overcast